| time (UTC) | temp F | wind direction | speed MPH | gust MPH | rain 1hr in | rain 24hr in | rain mn in | humidity % | barometer mb |
| 20260508181605 | 69 | 148 | 3.0 | 8.0 | 0.00 | 0.00 | 0.00 | 73 | 1010.8 |
| 20260508180055 | 70 | 176 | 3.0 | 9.0 | 0.00 | 0.00 | 0.00 | 71 | 1011.0 |
| 20260508174559 | 71 | 151 | 5.0 | 10.0 | 0.00 | 0.00 | 0.00 | 67 | 1011.0 |
| 20260508173056 | 75 | 132 | 6.0 | 10.0 | 0.00 | 0.00 | 0.00 | 64 | 1010.8 |
| 20260508171549 | 73 | 184 | 3.0 | 10.0 | 0.00 | 0.00 | 0.00 | 68 | 1010.8 |
| 20260508170051 | 70 | 203 | 3.0 | 9.0 | 0.00 | 0.00 | 0.00 | 70 | 1011.3 |
| 20260508164559 | 70 | 82 | 4.0 | 10.0 | 0.00 | 0.00 | 0.00 | 70 | 1011.7 |
| 20260508163056 | 71 | 196 | 4.0 | 11.0 | 0.00 | 0.00 | 0.00 | 68 | 1011.8 |
| 20260508161553 | 72 | 145 | 3.0 | 9.0 | 0.00 | 0.00 | 0.00 | 68 | 1011.7 |
| 20260508160049 | 70 | 119 | 2.0 | 8.0 | 0.00 | 0.00 | 0.00 | 71 | 1011.9 |
| 20260508154553 | 67 | 116 | 2.0 | 9.0 | 0.00 | 0.00 | 0.00 | 74 | 1012.2 |
| 20260508153053 | 67 | 104 | 3.0 | 8.0 | 0.00 | 0.00 | 0.00 | 75 | 1012.4 |
| 20260508151600 | 65 | 175 | 3.0 | 6.0 | 0.00 | 0.00 | 0.00 | 77 | 1012.8 |
| 20260508150101 | 64 | 0 | 1.0 | 5.0 | 0.00 | 0.00 | 0.00 | 77 | 1012.9 |
| 20260508144619 | 64 | 0 | 0.0 | 4.0 | 0.00 | 0.00 | 0.00 | 78 | 1012.9 |
| 20260508143104 | 64 | 105 | 2.0 | 6.0 | 0.00 | 0.00 | 0.00 | 77 | 1012.9 |
| 20260508141602 | 64 | 90 | 2.0 | 6.0 | 0.00 | 0.00 | 0.00 | 77 | 1012.7 |
| 20260508140054 | 63 | 112 | 2.0 | 6.0 | 0.00 | 0.00 | 0.00 | 78 | 1012.4 |
| 20260508134556 | 63 | 148 | 1.0 | 4.0 | 0.00 | 0.00 | 0.00 | 79 | 1012.6 |
| 20260508133113 | 62 | 153 | 1.0 | 5.0 | 0.00 | 0.00 | 0.00 | 81 | 1012.6 |
| 20260508131549 | 61 | 150 | 1.0 | 6.0 | 0.00 | 0.00 | 0.00 | 82 | 1012.7 |
| 20260508130049 | 60 | 145 | 1.0 | 4.0 | 0.00 | 0.00 | 0.00 | 86 | 1012.7 |
| 20260508124554 | 58 | 0 | 0.0 | 0.0 | 0.00 | 0.00 | 0.00 | 89 | 1012.9 |
| 20260508123110 | 58 | 0 | 0.0 | 0.0 | 0.00 | 0.00 | 0.00 | 90 | 1012.9 |
| 20260508121553 | 57 | 0 | 0.0 | 1.0 | 0.00 | 0.00 | 0.00 | 91 | 1012.4 |
| 20260508120058 | 56 | 0 | 0.0 | 0.0 | 0.00 | 0.00 | 0.00 | 91 | 1012.7 |
| 20260508114555 | 55 | 0 | 0.0 | 0.0 | 0.00 | 0.00 | 0.00 | 91 | 1012.7 |
| 20260508113106 | 56 | 0 | 0.0 | 0.0 | 0.00 | 0.00 | 0.00 | 91 | 1012.8 |
| 20260508111608 | 56 | 0 | 0.0 | 2.0 | 0.00 | 0.00 | 0.00 | 91 | 1012.8 |
| 20260508110059 | 55 | 0 | 0.0 | 3.0 | 0.00 | 0.00 | 0.00 | 91 | 1012.6 |
| 20260508104556 | 55 | 0 | 0.0 | 2.0 | 0.00 | 0.00 | 0.00 | 91 | 1012.7 |
| 20260508103058 | 55 | 0 | 0.0 | 0.0 | 0.00 | 0.00 | 0.00 | 90 | 1012.8 |
| 20260508101557 | 56 | 0 | 0.0 | 0.0 | 0.00 | 0.00 | 0.00 | 90 | 1012.8 |
| 20260508100053 | 57 | 0 | 0.0 | 0.0 | 0.00 | 0.00 | 0.00 | 89 | 1012.8 |
| 20260508094549 | 57 | 0 | 0.0 | 2.0 | 0.00 | 0.00 | 0.00 | 88 | 1012.4 |
| 20260508093106 | 57 | 0 | 0.0 | 2.0 | 0.00 | 0.00 | 0.00 | 89 | 1012.3 |
| 20260508091609 | 57 | 0 | 0.0 | 2.0 | 0.00 | 0.00 | 0.00 | 89 | 1012.1 |
| 20260508090110 | 58 | 0 | 0.0 | 2.0 | 0.00 | 0.00 | 0.00 | 88 | 1012.6 |
| 20260508084555 | 58 | 0 | 0.0 | 2.0 | 0.00 | 0.00 | 0.00 | 88 | 1012.4 |
| 20260508083055 | 58 | 0 | 0.0 | 2.0 | 0.00 | 0.00 | 0.00 | 87 | 1012.4 |
| 20260508081603 | 59 | 0 | 0.0 | 2.0 | 0.00 | 0.00 | 0.00 | 86 | 1012.8 |
| 20260508080048 | 59 | 0 | 0.0 | 0.0 | 0.00 | 0.00 | 0.00 | 87 | 1012.9 |
| 20260508074556 | 59 | 0 | 0.0 | 1.0 | 0.00 | 0.00 | 0.00 | 89 | 1013.5 |
| 20260508073104 | 58 | 107 | 0.0 | 0.0 | 0.00 | 0.00 | 0.00 | 91 | 1013.7 |
| 20260508071604 | 57 | 0 | 0.0 | 0.0 | 0.00 | 0.00 | 0.00 | 91 | 1013.5 |
| 20260508070104 | 57 | 0 | 0.0 | 0.0 | 0.00 | 0.00 | 0.00 | 91 | 1013.3 |
| 20260508064550 | 57 | 0 | 0.0 | 0.0 | 0.00 | 0.00 | 0.00 | 91 | 1013.3 |
| 20260508063053 | 57 | 0 | 0.0 | 0.0 | 0.00 | 0.00 | 0.00 | 91 | 1013.4 |
| 20260508061553 | 58 | 0 | 0.0 | 0.0 | 0.00 | 0.00 | 0.00 | 91 | 1013.7 |
| 20260508060053 | 57 | 0 | 0.0 | 0.0 | 0.00 | 0.00 | 0.00 | 91 | 1013.8 |
| 20260508054553 | 56 | 0 | 0.0 | 0.0 | 0.00 | 0.00 | 0.00 | 90 | 1014.0 |
| 20260508053114 | 57 | 0 | 0.0 | 0.0 | 0.00 | 0.00 | 0.00 | 90 | 1014.0 |
| 20260508051546 | 57 | 0 | 0.0 | 0.0 | 0.00 | 0.00 | 0.00 | 89 | 1014.2 |
| 20260508050055 | 57 | 0 | 0.0 | 0.0 | 0.00 | 0.00 | 0.00 | 89 | 1014.1 |
| 20260508044554 | 57 | 0 | 0.0 | 0.0 | 0.00 | 0.00 | 0.00 | 88 | 1014.1 |
| 20260508043054 | 58 | 0 | 0.0 | 0.0 | 0.00 | 0.00 | 0.00 | 87 | 1014.1 |
| 20260508041614 | 58 | 0 | 0.0 | 0.0 | 0.00 | 0.00 | 0.00 | 85 | 1014.0 |
| 20260508040108 | 59 | 0 | 0.0 | 0.0 | 0.00 | 0.00 | 0.00 | 84 | 1014.0 |
| 20260508034553 | 59 | 0 | 0.0 | 0.0 | 0.00 | 0.00 | 0.00 | 83 | 1013.9 |
| 20260508033052 | 59 | 0 | 0.0 | 0.0 | 0.00 | 0.00 | 0.00 | 82 | 1013.8 |
| 20260508031551 | 60 | 0 | 0.0 | 0.0 | 0.00 | 0.00 | 0.00 | 80 | 1013.6 |
| 20260508030048 | 61 | 0 | 0.0 | 2.0 | 0.00 | 0.00 | 0.00 | 75 | 1013.3 |
| 20260508024600 | 62 | 107 | 1.0 | 4.0 | 0.00 | 0.00 | 0.00 | 74 | 1013.1 |
| 20260508023051 | 62 | 0 | 0.0 | 3.0 | 0.00 | 0.00 | 0.00 | 74 | 1013.1 |
| 20260508021552 | 62 | 123 | 0.0 | 2.0 | 0.00 | 0.00 | 0.00 | 74 | 1013.1 |
| 20260508020053 | 62 | 123 | 0.0 | 0.0 | 0.00 | 0.00 | 0.00 | 76 | 1013.2 |
| 20260508014548 | 61 | 0 | 0.0 | 0.0 | 0.00 | 0.00 | 0.00 | 78 | 1013.2 |
| 20260508013054 | 62 | 0 | 0.0 | 0.0 | 0.00 | 0.00 | 0.00 | 78 | 1013.2 |
| 20260508011558 | 62 | 0 | 0.0 | 0.0 | 0.00 | 0.00 | 0.00 | 77 | 1013.3 |
| 20260508010056 | 64 | 0 | 0.0 | 2.0 | 0.00 | 0.00 | 0.00 | 74 | 1013.2 |
| 20260508004556 | 65 | 0 | 0.0 | 3.0 | 0.00 | 0.00 | 0.00 | 71 | 1013.2 |
| 20260508003105 | 65 | 0 | 0.0 | 2.0 | 0.00 | 0.00 | 0.00 | 70 | 1013.3 |
| 20260508001554 | 65 | 123 | 0.0 | 2.0 | 0.00 | 0.00 | 0.00 | 68 | 1013.4 |
| 20260508000057 | 65 | 0 | 0.0 | 2.0 | 0.00 | 0.00 | 0.00 | 68 | 1013.5 |
| 20260507234550 | 65 | 0 | 0.0 | 2.0 | 0.00 | 0.01 | 0.00 | 67 | 1013.7 |
| 20260507233102 | 66 | 0 | 0.0 | 2.0 | 0.00 | 0.01 | 0.00 | 68 | 1013.8 |
| 20260507231555 | 66 | 0 | 0.0 | 1.0 | 0.00 | 0.01 | 0.00 | 65 | 1013.5 |
| 20260507230054 | 66 | 0 | 0.0 | 1.0 | 0.00 | 0.01 | 0.00 | 63 | 1013.6 |
| 20260507224600 | 67 | 0 | 0.0 | 1.0 | 0.00 | 0.01 | 0.00 | 63 | 1013.8 |
| 20260507223053 | 66 | 0 | 0.0 | 1.0 | 0.00 | 0.01 | 0.00 | 65 | 1013.9 |
| 20260507221549 | 67 | 0 | 0.0 | 2.0 | 0.00 | 0.01 | 0.00 | 64 | 1014.0 |
| 20260507220047 | 66 | 165 | 0.0 | 4.0 | 0.00 | 0.01 | 0.00 | 64 | 1014.3 |
| 20260507214558 | 67 | 145 | 0.0 | 6.0 | 0.00 | 0.01 | 0.00 | 62 | 1014.1 |
| 20260507213103 | 67 | 92 | 0.0 | 5.0 | 0.00 | 0.01 | 0.00 | 63 | 1014.3 |
| 20260507211552 | 67 | 155 | 1.0 | 5.0 | 0.00 | 0.01 | 0.00 | 63 | 1014.4 |
| 20260507204557 | 67 | 145 | 1.0 | 7.0 | 0.00 | 0.01 | 0.00 | 61 | 1015.2 |
| 20260507203051 | 69 | 158 | 2.0 | 6.0 | 0.00 | 0.01 | 0.00 | 57 | 1014.9 |
| 20260507201556 | 69 | 105 | 1.0 | 5.0 | 0.00 | 0.01 | 0.00 | 56 | 1014.9 |
| 20260507200051 | 69 | 130 | 2.0 | 7.0 | 0.00 | 0.01 | 0.00 | 57 | 1014.7 |
| 20260507194618 | 69 | 132 | 1.0 | 4.0 | 0.00 | 0.01 | 0.00 | 56 | 1015.0 |
| 20260507193055 | 69 | 155 | 1.0 | 8.0 | 0.00 | 0.01 | 0.00 | 58 | 1015.1 |
| 20260507191554 | 70 | 112 | 1.0 | 7.0 | 0.00 | 0.01 | 0.00 | 57 | 1015.5 |
| 20260507190054 | 70 | 80 | 3.0 | 8.0 | 0.00 | 0.01 | 0.00 | 57 | 1016.1 |
| 20260507184552 | 69 | 335 | 0.0 | 8.0 | 0.00 | 0.01 | 0.00 | 55 | 1016.4 |
| 20260507183059 | 69 | 106 | 1.0 | 8.0 | 0.00 | 0.01 | 0.00 | 56 | 1016.2 |